Location: Newark
(49.3808°N, 3.1844°E)
Time: 16:16:58
(UTC+00:00)

Vanguard 1 Rocket - Pass Details

Date: 17 November 2019
Orbit: 650 x 4226 km, 34.3° (Epoch: 05 December)

Event Time Altitude Azimuth Distance (km) Brightness Sun altitude
Rises 06:33:17 0° 245° (WSW) 3,150 9.8 -4.8°
Reaches altitude 10° 06:35:59 10° 226° (SW) 2,438 9.4 -4.4°
Maximum altitude 06:39:57 19° 180° (S) 2,226 9.7 -3.8°
Drops below altitude 10° 06:45:25 10° 138° (SE) 3,516 11.8 -3.0°
Sets 06:50:26 0° 124° (SE) 5,158 14.0 -2.3°
